{"data":{"norad_id":57176,"intl_designator":"2023-091L","name":"SITRO-AIS 5 (KATYS)","alt_names":[],"object_type":"PAYLOAD","status":"ACTIVE","operator":null,"country":"CIS","launch_date":"2023-06-27","launch_site_code":"VOSTO","launch_vehicle":null,"mission":null,"orbit_class":"UNKNOWN","rcs_meters":null,"size_class":null,"mass_kg":null,"dimensions":null,"purposes":["tech_demo"],"wikipedia_slug":null,"has_3d_model":false,"image_url":null,"decayed_at":null,"tle_current":{"epoch":"2026-05-25T04:00:25.962624Z","epoch_age_seconds":54580,"freshness":"FRESH","line1":"1 57176U 23091L   26145.16696716  .00012203  00000+0  43706-3 0  9991","line2":"2 57176  97.5073 208.8563 0011889 176.0754 184.0581 15.28838646160823","mean_motion":15.28838646,"eccentricity":0.0011889,"inclination_deg":97.5073,"raan_deg":208.8563,"arg_perigee_deg":176.0754,"mean_anomaly_deg":184.0581,"bstar":0.00043706,"rev_number":16082,"period_min":94.18914178861,"perigee_km":471.13005654668,"apogee_km":487.43562944936,"semimajor_km":6857.419842998,"source":"CELESTRAK","updated_at":"2026-05-25T13:38:25.532273Z"}}}